Location: Allison's Woods
(35.8809°N, 80.8140°W)
Time: 13:32:06
(UTC-04:00)

Iridium 39 - Visible Passes

Search period start: 30 March 2015 00:00
Search period end: 09 April 2015 00:00
Orbit: 776 x 779 km, 86.4° (Epoch: 30 March)

Date Brightness Start Highest point End Pass type
(mag) Time Alt. Az. Time Alt. Az. Time Alt. Az.
07 Apr 9.0 00:15:08 10° N 00:15:21 11° N 00:15:21 11° N visible
07 Apr 8.7 23:41:32 10° N 23:42:04 13° N 23:42:04 13° N visible
08 Apr 8.6 23:08:19 10° NNE 23:08:48 12° NNE 23:08:48 12° NNE visible
